EHI
6 9 15 20 21 20 16 11 9 8 5 2 3 3 2 2 2 2 2 1 0 0 0 0 0 0 0 0 0 0 0 0 0 0 0 0 0 0 0 0 0 0 0
7 10 16 21 20 18 15 12 10 8 5 2 2 2 1 1 1 2 1 0 0 0 0 0 0 0 0 0 0 0 0 0 0 0 0 0 0 0 0 0 0 0 0
8 9 16 20 18 15 14 13 12 9 5 2 2 2 1 1 1 2 1 0 0 1 1 1 2 1 1 0 0 0 0 0 0 0 0 0 0 0 0 0 0 0 0
6 7 12 18 17 14 13 13 12 9 5 2 1 2 2 1 1 1 1 0 0 1 2 2 2 2 1 0 0 0 0 0 0 0 0 0 0 0 0 0 0 0 1
6 7 12 17 17 16 14 13 10 8 5 2 1 1 1 1 0 0 0 0 0 1 1 1 1 1 1 0 0 0 1 0 0 0 0 0 0 0 0 1 1 2 2
4 6 11 16 18 17 15 13 12 9 6 4 2 1 0 0 0 0 0 0 0 0 0 0 0 0 0 0 0 0 0 0 0 0 0 0 1 1 1 1 2 2 3
6 7 9 14 17 17 16 15 15 13 9 7 5 2 1 1 0 0 0 0 0 0 0 0 0 0 0 0 0 0 0 0 0 0 0 0 1 2 1 1 1 1 2
11 10 9 11 13 14 15 16 16 15 12 9 6 4 3 2 2 2 1 1 1 0 0 0 0 0 0 0 0 0 0 0 0 0 0 0 1 2 1 1 0 1 2
13 11 8 7 7 9 11 13 14 14 11 7 5 4 4 3 2 2 2 2 1 1 0 0 0 0 0 0 0 0 0 0 0 0 0 0 1 2 1 0 0 0 1
10 8 5 2 2 4 7 9 10 10 7 4 2 2 1 1 1 1 1 1 1 1 0 0 0 0 0 0 0 0 0 0 0 0 0 0 1 1 1 0 0 0 0
8 5 2 1 1 2 5 6 7 6 4 2 1 0 0 0 0 0 0 0 0 0 0 0 0 0 0 0 0 0 0 0 0 0 0 0 1 1 0 0 0 0 0
7 5 3 2 2 4 5 5 4 3 2 1 1 0 0 0 0 0 0 0 0 0 0 0 0 0 0 0 0 0 0 0 0 0 0 0 1 2 1 0 0 0 0
5 5 4 4 5 6 6 5 3 3 1 1 0 0 0 0 0 0 0 0 0 0 0 0 0 0 0 0 0 0 0 0 0 0 0 0 1 1 1 0 0 0 0
4 4 4 5 7 7 5 4 3 2 1 0 0 0 0 0 0 0 0 0 0 0 0 0 0 0 0 0 0 0 0 0 0 0 0 0 0 0 0 0 0 0 0
3 3 4 6 7 6 5 4 2 1 1 0 0 0 0 1 0 0 0 0 0 0 0 0 0 0 0 0 0 0 0 0 0 0 0 0 0 0 0 0 0 0 0
1 3 5 7 6 5 4 3 1 0 0 0 0 0 0 0 0 0 0 0 0 0 0 0 0 0 0 0 0 0 0 0 0 0 0 0 0 0 0 0 0 0 0
1 2 4 5 4 3 3 1 0 0 0 0 0 0 0 0 0 0 0 0 0 0 0 0 0 0 0 0 0 0 0 0 0 0 0 0 0 0 0 0 0 0 0
1 2 3 3 2 2 2 1 0 0 0 0 0 0 0 0 0 0 0 0 0 0 0 0 0 0 0 0 0 0 0 0 0 0 0 0 0 0 0 0 0 0 0
3 3 3 2 1 1 1 0 0 0 0 0 0 0 0 0 0 0 0 0 0 0 0 0 0 0 0 0 0 0 0 0 0 0 0 0 0 0 0 0 0 0 0
3 2 1 1 0 0 0 0 0 0 0 0 0 0 0 0 0 0 0 0 0 0 0 0 0 0 0 0 0 0 0 0 0 0 0 0 0 0 0 0 0 0 0
1 1 1 0 0 0 0 0 0 0 0 0 0 0 0 0 0 0 0 0 0 0 0 0 0 0 0 0 0 0 0 0 0 0 0 0 0 0 0 0 0 0 0
0 0 0 0 0 0 0 0 0 0 0 0 0 0 0 0 0 0 0 0 0 0 0 0 0 0 0 0 0 0 0 0 0 0 0 0 0 0 0 0 0 0 0
0 0 0 0 0 0 0 0 0 0 0 0 0 0 0 0 0 0 0 0 0 0 0 0 0 0 0 0 0 0 0 0 0 0 0 0 0 0 0 0 0 0 0
0 0 0 0 0 1 1 0 0 0 0 0 0 0 0 0 0 0 0 0 0 0 0 0 0 0 0 0 0 0 0 0 0 0 0 0 0 0 0 0 0 0 0
0 0 0 0 1 2 2 1 0 0 0 0 0 0 0 0 0 0 0 0 0 0 0 0 0 0 0 0 0 0 0 0 0 0 0 0 0 0 0 0 0 0 0
0 0 0 0 1 2 2 2 1 0 0 0 0 0 0 0 0 0 0 0 0 0 0 0 0 0 0 0 0 0 0 0 0 0 0 0 0 0 0 0 0 0 0
Wind_Speed
8 9 10 10 10 11 11 11 11 11 11 11 11 11 11 10 10 10 10 9 9 8 8 8 7 7 6 6 6 5 5 4 4 4 4 4 3 3 3 3 2 2 3
11 11 11 11 11 11 11 11 11 11 11 11 11 11 10 10 10 10 10 10 9 8 8 7 7 6 6 5 5 5 4 4 2 2 2 2 2 2 2 2 2 1 4
12 11 11 11 11 11 12 12 12 11 11 11 11 11 10 10 10 10 10 9 9 9 8 8 8 7 6 5 5 4 4 3 3 2 2 1 0 1 1 1 1 2 3
12 10 10 11 11 11 11 11 11 11 11 11 11 10 10 10 10 9 9 9 9 9 8 8 8 7 7 6 6 4 4 3 4 5 3 1 0 1 1 1 1 1 2
11 10 10 11 12 11 11 11 11 11 11 11 10 10 10 10 9 9 9 9 9 8 8 8 8 7 7 7 6 5 5 5 5 5 2 1 1 0 1 2 1 1 1
11 10 9 12 12 11 11 11 11 10 10 10 10 10 9 9 9 9 9 9 8 8 8 7 7 7 7 6 6 6 6 6 5 3 2 1 1 1 2 2 2 3 3
11 10 9 12 12 11 11 10 10 10 10 9 9 9 9 9 8 8 8 8 8 8 7 7 7 7 7 7 6 6 6 7 4 2 2 2 1 2 3 3 4 4 5
10 10 9 11 11 11 10 10 10 10 9 9 9 9 8 8 8 8 8 7 7 7 7 7 7 7 6 6 6 6 7 7 5 4 2 2 2 2 4 4 5 6 6
9 8 7 7 8 10 10 10 10 9 9 8 8 8 8 8 8 8 8 7 7 7 7 7 7 6 6 6 6 6 7 7 4 3 3 2 2 4 5 5 5 6 7
7 7 6 6 6 6 6 8 8 8 7 7 7 6 6 6 6 7 7 7 7 7 7 7 7 7 6 6 6 6 7 6 3 3 2 2 3 4 5 6 7 7 8
6 5 5 6 5 5 4 6 6 6 6 5 4 4 4 2 3 3 5 6 6 6 6 6 6 7 6 6 7 7 5 2 2 2 2 3 5 5 6 7 7 8 8
6 6 5 5 4 4 3 3 2 2 2 2 2 2 2 2 2 3 3 4 5 6 6 7 7 7 5 3 4 5 2 3 2 2 2 4 6 7 8 8 9 9 9
7 6 6 5 4 3 2 2 1 1 1 2 2 2 2 2 1 1 1 2 2 4 3 4 4 3 2 2 2 2 3 3 2 2 2 5 7 9 10 10 10 11 11
7 6 6 5 4 3 2 2 1 1 1 1 1 2 2 1 1 1 1 1 1 1 2 2 2 3 3 3 3 3 3 2 2 2 2 6 8 10 11 12 12 12 12
7 6 5 5 4 3 2 1 2 1 1 1 1 1 2 1 1 1 1 2 2 2 2 3 3 3 4 4 3 4 4 4 3 3 3 6 8 10 11 12 13 13 13
7 6 5 5 4 3 2 2 2 1 1 1 1 1 2 1 1 1 2 2 2 2 3 3 3 3 3 3 4 4 4 4 4 3 3 4 8 10 12 13 13 14 14
8 7 6 5 5 4 3 2 2 1 1 1 1 1 1 1 1 1 1 1 2 2 3 3 4 3 3 4 4 4 4 4 4 5 4 3 4 7 10 13 14 15 15
8 7 6 5 5 4 3 2 1 1 2 1 1 1 1 1 1 1 1 1 2 2 2 2 3 3 3 4 4 4 4 4 5 5 4 4 3 4 6 11 14 15 15
8 8 6 5 5 4 3 2 2 1 1 1 1 1 0 1 1 1 0 1 2 2 2 3 3 3 3 4 5 4 4 4 5 5 5 5 4 4 4 8 12 14 15
8 8 7 5 5 4 3 2 1 1 1 1 1 1 0 0 0 1 1 1 1 1 2 2 3 3 3 4 6 6 5 5 4 4 5 4 4 5 5 6 6 8 13
8 8 7 6 5 4 3 2 2 1 1 1 1 1 1 0 0 0 1 1 1 1 2 2 2 3 3 3 4 5 5 5 5 4 3 4 5 5 5 6 5 4 6
8 8 7 7 6 5 3 2 2 2 1 1 1 1 1 1 1 1 1 1 1 1 2 2 3 2 3 3 3 5 5 5 3 4 3 4 5 4 5 7 6 6 5
7 8 7 7 6 5 4 2 2 1 1 0 1 1 1 1 1 0 1 1 1 1 2 2 2 3 3 3 2 1 3 5 6 4 4 4 4 4 5 5 6 6 7
7 6 6 7 6 6 5 4 4 3 2 2 2 1 2 1 1 1 1 1 2 1 2 3 3 2 3 3 3 2 4 4 5 7 4 4 6 6 6 7 6 6 7
7 6 6 6 6 6 5 5 4 3 2 2 1 2 2 1 2 1 2 1 2 2 2 3 3 3 3 3 3 3 4 4 5 6 10 7 6 5 5 6 6 6 7
7 6 5 6 5 6 5 5 4 4 3 2 2 2 1 1 1 2 2 2 2 2 3 3 4 4 4 4 4 3 4 4 4 5 8 9 9 7 7 6 6 6 6
Wind_Direction
109 105 95 89 84 79 76 74 73 71 68 68 68 67 66 64 60 58 58 57 55 55 56 57 53 51 50 50 52 52 55 55 51 54 62 63 60 62 71 64 70 113 120
113 110 97 92 89 84 78 76 74 73 70 68 68 67 66 65 63 60 59 57 54 52 50 49 49 49 48 47 48 47 49 48 39 36 58 61 57 62 65 62 56 99 117
113 111 99 92 90 86 81 77 74 72 71 69 67 66 66 63 62 59 56 54 51 49 48 44 41 41 39 37 36 34 31 22 3 331 305 270 123 105 121 84 97 125 123
108 101 98 94 91 88 84 81 77 73 70 69 68 65 64 62 60 58 55 52 49 45 44 43 38 36 33 29 22 11 2 350 335 322 296 273 176 137 152 130 133 145 140
103 101 100 97 92 88 85 82 78 74 71 68 66 65 63 61 59 56 54 50 46 43 42 40 34 31 27 22 15 6 350 332 322 311 310 339 354 230 206 177 179 196 198
108 105 104 99 94 90 86 83 79 75 72 69 66 64 62 60 57 54 52 49 44 40 37 35 30 26 20 13 5 358 350 338 321 304 334 344 321 258 240 227 219 228 229
108 109 110 103 98 93 89 85 80 75 72 69 67 64 61 59 57 53 50 45 41 37 32 28 22 18 13 7 358 347 340 331 316 314 331 331 313 283 265 254 248 246 242
111 115 117 109 104 97 91 87 81 77 74 71 68 64 60 57 55 52 47 41 36 31 24 18 14 12 5 358 353 346 336 325 318 314 319 310 316 290 281 273 263 259 254
111 118 124 122 110 101 96 91 85 81 77 74 71 68 63 58 54 51 44 39 33 26 19 13 7 1 356 348 341 335 330 321 308 300 298 307 319 296 291 290 281 274 268
110 115 121 119 115 111 103 96 92 88 84 79 78 75 66 59 54 50 43 36 27 19 11 5 359 352 345 338 329 322 317 316 295 294 293 303 309 302 298 292 282 279 275
121 117 113 111 109 108 113 108 104 99 97 90 84 80 62 55 49 48 47 30 20 11 2 356 348 341 332 326 321 318 311 288 288 288 292 310 301 292 292 293 289 282 278
140 130 117 110 110 111 112 114 114 104 102 87 75 61 50 42 45 45 35 18 7 360 351 346 339 334 330 311 307 309 294 290 293 291 299 312 304 294 289 288 288 286 282
141 132 122 116 112 106 107 111 102 99 88 69 61 48 45 39 35 32 12 2 348 345 335 331 323 315 311 307 301 292 287 287 280 285 296 302 300 295 291 290 289 287 282
137 134 126 125 120 115 109 109 112 95 85 73 61 51 49 35 24 5 4 345 345 334 332 330 322 322 324 323 320 306 299 290 281 271 275 289 291 290 290 290 289 286 284
139 136 134 131 128 125 120 125 105 100 91 82 59 46 56 50 22 3 357 355 349 345 343 333 328 329 327 324 319 315 304 295 288 276 281 281 282 284 285 284 286 286 284
145 143 138 137 135 132 130 124 117 108 99 85 74 60 48 56 31 8 4 352 351 343 335 327 323 325 317 313 307 306 306 298 288 277 268 277 279 281 284 286 287 288 287
148 145 144 146 140 141 138 134 124 135 115 99 91 75 58 54 33 14 4 350 340 332 331 329 328 327 322 320 313 309 306 302 295 290 284 274 273 277 281 284 286 288 287
147 147 150 150 145 146 140 146 145 131 115 122 120 87 63 52 33 14 10 335 330 337 335 330 335 333 327 321 311 304 301 296 295 291 289 286 279 275 277 283 287 289 288
152 150 151 148 152 150 145 149 147 134 133 140 126 104 71 41 24 29 341 322 346 344 336 328 340 331 322 317 306 301 296 291 288 289 283 282 283 283 275 280 283 288 288
151 149 151 151 153 146 144 145 139 135 149 136 137 141 147 318 24 18 331 341 342 334 326 320 320 322 311 305 307 303 291 283 280 278 278 286 287 284 285 282 275 279 284
154 154 157 158 159 150 153 157 156 165 165 142 159 158 184 249 335 344 330 319 321 307 297 305 312 316 317 316 316 309 294 275 268 273 285 289 285 283 285 283 274 270 276
163 161 162 163 164 160 163 166 166 162 178 181 188 187 203 225 265 304 298 283 290 299 311 315 318 312 315 335 323 321 320 317 303 294 282 278 286 290 287 286 280 274 274
164 164 168 166 163 162 158 150 139 115 114 153 199 205 210 210 231 255 272 279 286 283 285 297 301 301 302 309 310 300 309 303 314 286 280 285 291 294 289 290 289 285 280
165 158 160 161 160 161 157 161 167 173 191 212 201 211 223 207 212 227 255 270 275 278 280 284 293 287 285 292 295 264 254 274 298 307 301 294 294 292 290 295 293 289 289
155 156 159 160 161 162 166 170 176 188 204 202 191 203 224 220 212 224 239 252 269 269 268 276 282 277 270 269 276 280 277 274 262 277 293 300 294 282 284 285 284 285 286
149 153 158 162 165 165 170 176 182 188 193 194 206 208 225 229 232 238 251 253 260 264 265 266 267 269 266 268 271 270 271 271 274 273 283 293 294 290 285 278 280 282 282